Location: Gniazdowice
(50.2124°N, 20.2673°E)
Time: 15:21:33
(UTC+00:00)

Cosmos 968 Rocket - Pass Details

Date: 23 May 2024
Orbit: 738 x 768 km, 74.0° (Epoch: 12 June)

Event Time Altitude Azimuth Distance (km) Brightness Sun altitude
Exits shadow 00:22:13 16° 165° (SSE) 1,875 5.1 -15.3°
Maximum altitude 00:25:50 38° 104° (ESE) 1,121 4.5 -15.1°
Drops below altitude 10° 00:30:33 10° 37° (NE) 2,270 7.3 -14.7°
Sets 00:33:03 0° 30° (NNE) 3,203 8.7 -14.5°
